Yaogan 31 hao 03 zu 03 xing

operational
NORAD ID: 47695 Int'l Des: 2021-014 Owner: ZLZB Country: CN Constellation: yaogan
LEO

关于 Yaogan 31 hao 03 zu 03 xing

正在加载描述...

实时位置

正在加载3D地球...

即将过境

高度历史

Altitude vs Time

uPlot chart will show altitude changes over time

两行轨道根数

1 47695U 21014E 26062.17858344 .00000130 00000-0 34150-3 0 9995
2 47695 63.4028 110.1384 0167875 0.4963 359.6199 13.45440189246463
Epoch: Mar 3, 2026 • Age: 36 hours

当前状态

高度 1009.3 km
速度 7.39 km/s
星下点 -37.29°S, 99.3°E
发射日期 Feb 24, 2021
运行时间 5 years
类型 military

技术详情

分类 Payload
质量 500.00 kg
干质量 500.00 kg
总质量 500.00 kg
长度 0.50 m
直径 0.50 m
跨度 1.00 m
形状 Box + 2 Pan
制造商 DFHZ
阶段状态 In Orbit
所有者/国家 ZLZB/CN

大型星座

Loading constellations...